Wind_Speed
48 50 51 49 49 50 50 49 49 49 48 45 44 42 40 39 37 34 31 29 27 25 23 21 19 18 18 18 18 18 18 18 18 18 19 19 20 20 21 21 22 23 24 25
50 50 48 47 49 50 51 51 50 51 48 46 45 44 43 41 38 35 33 31 28 26 24 22 21 20 20 21 21 21 22 22 22 23 23 23 24 24 25 26 27 28 29 29
50 48 48 49 51 51 51 51 51 51 47 46 47 47 45 42 40 38 35 32 30 28 26 24 23 23 23 23 24 25 25 25 26 26 27 27 27 28 29 30 31 32 33 34
50 50 49 50 50 50 50 50 49 49 47 47 49 49 46 44 42 39 36 34 31 29 27 26 25 25 25 26 27 27 28 28 29 29 30 30 31 32 33 34 35 36 37 38
52 52 50 50 49 48 49 48 47 47 47 49 51 50 48 47 44 40 37 35 33 31 29 28 27 27 28 28 29 29 30 30 31 31 32 33 33 34 35 36 37 38 39 40
50 51 50 48 48 48 49 48 47 47 49 52 51 52 51 48 44 40 38 36 35 33 32 31 30 30 30 30 31 31 32 32 33 33 34 34 35 36 37 38 39 40 41 42
52 51 50 48 49 50 50 50 49 50 52 54 52 54 53 48 43 40 39 38 37 36 35 33 33 32 32 32 32 33 33 34 34 35 35 36 37 37 38 39 40 41 42 43
52 52 51 50 50 50 50 50 51 51 53 53 52 53 50 46 42 41 40 40 39 38 37 36 35 35 34 34 34 34 35 35 36 36 37 37 38 39 40 41 42 43 44 46
51 50 50 50 49 49 50 50 49 49 51 51 52 52 49 46 43 41 40 40 40 39 38 38 37 36 36 36 36 36 36 36 37 37 38 39 40 41 42 43 44 46 47 48
51 51 50 49 49 49 49 48 49 50 50 50 51 51 49 45 42 41 40 40 40 39 39 38 38 37 37 37 37 37 37 38 38 39 40 41 42 43 44 45 47 48 49 51
53 53 51 50 50 49 49 50 50 49 49 49 50 50 47 43 40 39 39 39 39 39 38 38 38 38 38 38 38 38 39 39 40 41 42 42 44 45 46 47 49 50 51 53
55 54 53 51 50 49 49 48 48 48 49 48 48 48 45 43 41 39 38 38 38 38 38 38 38 38 38 38 39 39 40 41 42 42 43 45 46 47 48 49 51 52 53 54
55 56 55 54 53 52 52 50 49 48 48 49 49 49 46 44 42 40 39 38 38 38 38 39 39 39 39 40 41 41 42 43 44 45 46 47 48 49 51 52 53 54 55 56
54 56 56 56 54 53 53 52 50 50 52 52 51 48 46 44 42 41 40 40 40 41 41 41 41 41 42 43 43 44 45 46 47 48 49 50 51 53 54 54 55 56 56 58
54 55 55 54 53 54 54 53 51 51 50 50 48 48 46 46 46 45 45 44 44 44 44 44 44 45 46 47 48 49 50 50 51 52 53 54 55 55 56 56 57 58 59 60
54 55 56 56 55 56 58 57 56 55 54 53 52 51 50 51 51 50 48 47 47 47 48 48 49 50 51 51 52 53 54 55 56 56 57 57 58 58 58 59 60 60 61 61
53 53 55 56 56 57 61 59 58 58 57 56 57 54 53 54 54 54 53 52 52 52 52 53 54 54 55 55 56 56 57 57 58 58 59 59 59 60 60 61 61 61 62 62
53 53 54 56 57 60 59 56 57 58 58 57 58 57 58 58 57 57 57 56 56 56 56 56 56 56 57 57 58 58 59 59 59 59 59 60 60 60 61 61 62 62 63 63
53 53 54 56 59 61 59 58 58 58 59 57 57 57 58 59 60 60 59 59 58 58 58 58 58 58 58 59 59 59 59 60 59 59 59 60 60 61 61 62 62 63 64 65
55 55 56 57 58 60 56 55 55 57 60 56 57 57 58 59 61 58 57 59 59 59 59 59 59 59 59 59 59 59 59 59 59 59 59 59 60 60 61 62 63 64 65 67
55 57 57 58 59 57 54 53 54 57 55 53 54 55 57 59 59 58 59 59 60 60 60 60 59 59 58 58 57 57 57 57 58 58 58 59 60 61 62 64 65 67 69 71
54 55 55 56 57 55 53 54 55 54 53 53 53 54 55 57 58 59 59 60 60 59 59 58 58 57 57 56 56 56 56 57 57 58 59 61 62 63 65 67 69 71 73 75
54 54 54 54 53 52 52 53 54 54 54 54 54 54 54 54 55 56 56 57 56 56 55 55 54 55 55 55 55 56 57 58 59 60 62 63 65 66 68 70 72 74 76 78
53 52 52 52 52 51 52 52 53 53 53 52 53 53 53 53 52 53 53 53 53 53 53 54 54 54 55 55 56 57 58 59 61 63 64 66 68 70 71 73 75 77 78 80
54 53 53 53 52 52 53 53 54 54 54 53 53 53 53 52 52 51 51 52 52 53 54 55 55 56 57 57 58 60 61 63 64 66 67 69 70 72 74 75 76 78 80 81
56 55 54 53 52 53 54 55 55 56 56 56 56 56 55 55 54 54 54 54 55 56 56 57 58 59 59 60 62 63 64 65 67 68 70 71 72 74 75 76 77 79 80 81
Wind_Direction
209 208 206 204 205 205 206 208 209 209 207 208 208 208 209 210 210 211 212 213 215 218 220 223 227 231 236 241 245 249 253 256 259 261 263 267 271 274 277 279 281 282 284 287
208 208 205 207 208 208 209 209 210 211 209 210 211 211 212 212 213 215 216 217 219 222 225 229 233 238 242 246 250 253 256 259 261 263 266 269 271 273 275 277 279 281 284 286
211 208 207 209 209 210 211 212 212 213 211 213 215 214 214 215 216 217 219 222 224 227 231 235 239 243 247 250 253 256 258 261 263 265 267 269 270 272 274 276 278 281 283 285
209 208 209 210 211 211 213 215 216 216 215 216 218 217 216 218 218 220 222 226 229 232 236 240 244 247 250 253 256 258 260 262 263 265 267 268 270 271 273 276 278 280 283 285
209 208 209 211 212 213 216 217 219 219 219 220 220 222 216 220 221 222 226 229 233 237 241 245 248 250 253 256 258 260 262 264 264 266 267 269 270 272 273 275 277 280 282 284
211 210 211 212 213 215 216 217 220 222 222 223 220 224 220 221 223 225 229 233 237 241 244 248 251 253 255 257 259 261 263 264 266 266 268 269 270 272 274 275 277 279 281 283
210 211 211 213 214 215 216 217 220 223 224 224 222 226 224 222 225 229 233 236 239 243 246 250 252 254 256 258 260 261 263 264 266 267 268 269 271 273 274 276 278 279 281 283
213 212 211 213 216 218 219 221 223 226 227 228 228 229 229 228 229 232 236 239 242 245 248 251 253 255 257 258 260 261 262 263 265 267 268 270 272 273 275 277 278 280 281 283
216 217 215 216 217 218 219 221 225 228 230 232 232 232 232 232 234 236 239 241 244 247 249 251 253 255 257 258 260 261 262 263 265 267 269 271 272 274 276 277 279 281 282 284
218 218 216 218 219 219 221 224 226 228 231 233 234 234 233 234 238 239 241 243 246 248 250 252 254 255 257 258 259 261 262 264 266 268 270 272 273 275 277 279 281 282 283 285
219 220 218 219 221 221 222 223 226 230 233 234 236 236 235 237 239 242 243 244 246 248 249 251 253 254 256 258 260 262 263 265 267 269 271 273 275 277 279 280 282 283 284 285
220 221 222 222 222 223 225 227 229 232 235 237 239 238 238 239 240 241 242 243 244 246 248 250 252 253 255 258 260 263 265 267 269 271 273 276 277 279 280 282 283 284 285 286
221 223 224 222 221 222 224 225 228 231 235 236 237 238 238 240 240 241 242 243 245 246 248 250 252 254 257 260 262 264 267 269 271 273 276 278 279 281 282 283 284 285 285 286
223 227 227 228 227 227 227 227 229 231 234 236 237 239 240 242 243 244 244 245 247 248 250 252 255 258 261 263 266 268 271 273 275 277 278 280 281 282 283 284 284 284 285 286
225 228 229 230 230 229 229 230 231 234 237 240 240 240 241 243 244 245 246 248 250 252 255 257 260 263 265 268 270 272 274 276 278 279 280 281 282 283 283 284 285 285 286 287
227 229 231 232 232 233 232 231 231 233 235 238 239 239 240 243 246 247 250 253 255 258 260 263 265 267 269 271 273 274 276 277 278 279 280 281 282 282 283 284 285 286 287 288
230 231 232 234 235 237 237 234 235 237 238 240 242 243 245 248 250 253 255 257 259 262 264 266 268 269 271 273 274 276 276 278 278 279 280 281 282 282 283 284 285 286 287 288
230 232 234 235 236 239 239 239 241 242 242 243 246 246 248 251 253 255 257 260 262 264 266 268 269 271 272 273 274 275 276 277 278 279 280 281 281 282 283 284 285 286 287 288
231 232 235 236 239 241 240 240 242 244 245 245 247 248 250 252 254 255 258 261 263 265 267 268 269 271 272 273 274 275 276 276 277 278 279 280 281 282 283 284 286 287 288 289
232 233 235 238 240 242 243 244 245 247 247 246 248 249 251 253 255 257 259 261 263 264 266 267 269 270 271 272 273 274 275 276 277 278 279 280 281 282 283 285 286 288 289 290
234 235 236 239 243 245 245 245 246 248 250 249 249 250 252 253 256 257 258 260 261 263 265 266 268 269 271 272 273 273 274 275 276 277 279 280 281 282 284 285 287 288 289 291
235 237 239 241 243 245 246 248 249 252 252 252 252 252 253 254 256 257 259 260 262 263 265 266 267 268 269 270 271 273 274 275 277 278 279 280 282 283 285 286 287 288 290 291
236 237 240 242 245 247 248 251 253 254 254 254 254 255 255 255 256 258 259 260 262 263 264 265 266 267 269 270 271 273 274 275 277 278 279 280 282 283 285 286 287 289 290 291
238 239 241 242 243 244 247 248 251 252 253 254 255 256 256 257 257 258 259 260 261 262 263 265 266 268 269 270 272 273 274 275 276 278 279 281 282 284 285 286 288 289 290 291
239 240 242 243 244 244 246 248 250 252 254 255 256 256 257 258 258 259 260 261 262 263 265 266 267 269 270 271 272 274 275 276 277 279 280 281 283 284 285 287 288 289 290 291
239 241 242 242 243 244 245 248 250 251 252 254 255 256 257 258 259 260 261 263 264 265 266 267 268 270 271 273 274 275 276 277 279 280 281 282 283 285 286 287 288 289 291 292
Height
5725 5733 5741 5751 5759 5767 5772 5779 5785 5791 5797 5803 5809 5814 5819 5822 5827 5831 5835 5839 5842 5845 5848 5851 5853 5855 5857 5858 5860 5861 5862 5862 5863 5864 5864 5865 5865 5865 5865 5864 5864 5863 5863 5862
5720 5729 5740 5746 5752 5759 5765 5772 5779 5785 5792 5798 5803 5808 5813 5818 5823 5827 5831 5834 5838 5841 5844 5847 5849 5851 5853 5854 5855 5856 5857 5858 5859 5860 5860 5860 5860 5860 5860 5859 5858 5858 5857 5857
5717 5727 5732 5738 5745 5752 5759 5766 5773 5779 5787 5792 5797 5802 5807 5813 5817 5822 5826 5830 5833 5837 5840 5842 5844 5846 5848 5849 5850 5851 5852 5853 5854 5854 5855 5855 5855 5855 5854 5853 5853 5852 5851 5850
5709 5717 5725 5732 5740 5748 5755 5761 5767 5774 5781 5785 5790 5795 5802 5807 5812 5817 5821 5825 5829 5832 5834 5837 5839 5841 5842 5843 5844 5846 5846 5847 5848 5849 5849 5849 5849 5849 5848 5847 5846 5845 5844 5843
5702 5710 5719 5727 5736 5743 5749 5756 5762 5768 5773 5777 5783 5788 5797 5800 5806 5812 5816 5820 5823 5826 5829 5831 5833 5835 5836 5837 5838 5839 5840 5841 5841 5842 5842 5842 5842 5842 5841 5841 5840 5838 5837 5835
5696 5705 5713 5721 5729 5735 5742 5749 5755 5759 5763 5769 5777 5781 5789 5795 5801 5807 5811 5814 5817 5820 5822 5824 5826 5828 5830 5831 5832 5832 5833 5834 5834 5835 5835 5835 5835 5834 5834 5833 5832 5831 5829 5827
5689 5698 5706 5715 5721 5726 5734 5741 5746 5749 5754 5762 5769 5772 5781 5790 5796 5801 5805 5808 5810 5813 5815 5817 5819 5821 5822 5824 5825 5825 5826 5827 5827 5827 5827 5827 5827 5827 5826 5825 5824 5822 5821 5819
5684 5692 5701 5708 5714 5722 5729 5735 5740 5745 5750 5757 5762 5766 5778 5785 5790 5794 5797 5800 5803 5805 5808 5810 5812 5813 5815 5816 5817 5818 5819 5819 5819 5819 5819 5819 5819 5818 5817 5816 5815 5813 5811 5809
5680 5689 5695 5701 5708 5715 5720 5726 5733 5738 5743 5749 5753 5762 5770 5777 5782 5786 5789 5792 5794 5797 5799 5802 5803 5805 5807 5808 5809 5810 5811 5811 5811 5811 5811 5811 5810 5809 5808 5807 5805 5803 5801 5799
5673 5680 5688 5694 5700 5706 5714 5720 5723 5729 5734 5739 5746 5753 5763 5770 5774 5777 5780 5783 5786 5788 5791 5793 5795 5797 5798 5799 5800 5801 5802 5802 5803 5803 5802 5802 5801 5800 5798 5797 5795 5793 5790 5788
5665 5672 5680 5686 5692 5700 5706 5710 5716 5722 5727 5733 5739 5749 5757 5761 5765 5768 5772 5774 5777 5780 5782 5784 5786 5787 5789 5790 5791 5792 5793 5793 5793 5793 5793 5792 5791 5789 5788 5786 5784 5781 5779 5776
5657 5664 5671 5678 5686 5692 5697 5704 5710 5716 5721 5727 5732 5743 5747 5753 5756 5759 5762 5765 5768 5770 5773 5775 5777 5778 5779 5781 5782 5783 5783 5783 5783 5783 5782 5781 5780 5778 5776 5774 5772 5769 5766 5763
5649 5654 5659 5666 5675 5681 5687 5695 5701 5707 5711 5716 5722 5734 5738 5742 5746 5750 5753 5756 5758 5761 5763 5765 5767 5768 5770 5771 5772 5772 5772 5772 5772 5771 5771 5769 5768 5766 5764 5762 5759 5756 5753 5749
5640 5644 5652 5660 5669 5677 5681 5688 5693 5696 5700 5707 5715 5725 5729 5733 5736 5739 5742 5745 5748 5750 5753 5755 5757 5758 5759 5760 5761 5761 5761 5761 5760 5759 5758 5757 5755 5753 5751 5748 5745 5742 5739 5736
5629 5636 5644 5652 5659 5665 5671 5678 5683 5687 5694 5701 5709 5715 5720 5722 5725 5728 5731 5734 5737 5740 5742 5744 5746 5747 5748 5749 5749 5749 5749 5748 5748 5746 5745 5743 5741 5739 5737 5734 5731 5728 5725 5721
5620 5629 5636 5641 5648 5652 5657 5665 5671 5677 5684 5690 5697 5703 5709 5709 5712 5716 5720 5723 5726 5728 5730 5732 5733 5735 5736 5736 5736 5736 5736 5735 5734 5733 5731 5729 5727 5725 5722 5719 5716 5713 5709 5706
5612 5619 5625 5631 5636 5639 5642 5655 5663 5669 5675 5681 5686 5696 5698 5699 5702 5705 5708 5710 5713 5716 5717 5719 5720 5721 5722 5722 5722 5722 5721 5720 5719 5718 5716 5714 5712 5710 5707 5704 5701 5698 5694 5690
5602 5608 5614 5619 5623 5623 5640 5650 5653 5658 5665 5671 5676 5682 5684 5687 5689 5691 5695 5698 5700 5702 5704 5705 5706 5707 5707 5707 5707 5707 5706 5705 5704 5702 5701 5699 5696 5694 5691 5688 5685 5682 5678 5674
5592 5598 5602 5607 5610 5616 5628 5636 5642 5646 5651 5660 5664 5669 5671 5672 5673 5678 5683 5685 5686 5687 5689 5690 5691 5692 5692 5692 5692 5691 5690 5689 5688 5687 5685 5683 5681 5678 5676 5673 5669 5666 5662 5658
5581 5586 5592 5595 5598 5605 5622 5628 5630 5631 5635 5649 5651 5654 5656 5657 5659 5668 5670 5669 5670 5672 5673 5675 5675 5676 5676 5676 5676 5675 5675 5674 5672 5671 5669 5667 5665 5662 5660 5656 5653 5650 5646 5642
5569 5574 5579 5585 5588 5597 5609 5613 5615 5617 5629 5635 5635 5638 5640 5642 5647 5652 5652 5653 5655 5656 5658 5659 5660 5661 5661 5661 5660 5660 5659 5658 5657 5655 5653 5651 5649 5646 5643 5640 5637 5633 5629 5625
5559 5564 5570 5574 5578 5590 5597 5598 5602 5607 5613 5616 5619 5622 5625 5629 5632 5634 5637 5638 5640 5642 5643 5644 5645 5646 5646 5646 5645 5645 5644 5643 5641 5640 5638 5636 5633 5630 5627 5623 5619 5615 5611 5606
5547 5554 5560 5566 5574 5580 5582 5586 5588 5592 5597 5601 5603 5607 5611 5614 5617 5619 5622 5623 5625 5627 5628 5629 5630 5630 5631 5631 5630 5630 5629 5627 5626 5624 5622 5619 5616 5613 5609 5606 5601 5597 5591 5586
5536 5543 5548 5554 5560 5566 5568 5571 5573 5577 5581 5585 5588 5592 5596 5599 5602 5605 5607 5609 5611 5612 5614 5615 5615 5616 5616 5616 5615 5615 5613 5612 5610 5608 5605 5602 5599 5596 5592 5587 5582 5577 5572 5566
5526 5531 5536 5542 5548 5552 5555 5557 5560 5564 5567 5571 5574 5578 5581 5584 5587 5590 5593 5595 5596 5598 5599 5600 5600 5601 5601 5601 5600 5599 5597 5595 5593 5591 5588 5585 5581 5577 5573 5568 5563 5558 5552 5545
5515 5521 5526 5531 5535 5538 5542 5544 5547 5550 5553 5557 5560 5563 5566 5570 5573 5575 5577 5579 5581 5583 5584 5585 5585 5585 5585 5584 5583 5582 5580 5578 5575 5572 5569 5566 5562 5558 5554 5549 5544 5537 5531 5524